Powrót do katalogu

STARLINK-35165

AktywnyŁącznośćVLEO
NORAD 65750·PAYLOAD·🇺🇸 United States

Wystrzelony Sep 25, 2025 z Cape Canaveral Space Force Station

Loading…

Następne Przeloty (najbliższe 24 godziny)

TLE

ŚwieżeSource: CelesTrak SupGP

Epoka: Sep 14, 2026, 23:05 UTC

1 65750C 25216S   26257.96229167 -.00065212  00000+0 -19264-2 0  2571
2 65750  53.1573 171.3067 0001320  85.9511  13.3707 15.34428442    18

Śledź STARLINK-35165 w czasie rzeczywistym z AllMySat

Download on the App Store